Location: Altenst�hlen
(53.5567°N, 8.9425°E)
Time: 07:05:11
(UTC+00:00)

YAOGAN 1 - Pass Details

Date: 23 October 2019
Orbit: 619 x 621 km, 98.0° (Epoch: 14 November)

Event Time Altitude Azimuth Distance (km) Brightness Sun altitude
Rises 18:15:01 0° 184° (S) 2,888 6.0 -19.1°
Reaches altitude 10° 18:17:18 10° 191° (SSW) 1,986 5.2 -19.4°
Maximum altitude 18:21:23 41° 262° (W) 915 3.9 -20.0°
Drops below altitude 10° 18:25:30 10° 333° (NNW) 2,001 5.6 -20.6°
Sets 18:27:49 0° 341° (NNW) 2,912 6.4 -21.0°
